[[{"header":{"parameterUnit":"m.s-1","parameterCategory":1,"la1":30.2992,"la2":30.254,"lo1":-89.0895,"lo2":-89.0443,"dy":0.0025,"dx":0.0025,"nx":19,"ny":19,"refTime":"2026-03-28T09:00:00:Z","depth":0,"parameterNumber":2,"parameterNumberName":"U-component_of_WINDS"},"data":[0,0,0,1.164,1.1643,1.1768,1.1768,1.1951,1.1952,0,0,0,0,0,0,0,0,0,0,0,1.1611,1.1612,1.164,1.1643,1.1768,1.1768,1.195,1.1952,0,0,0,0,0,0,0,0,0,0,0,1.161,1.1612,1.1614,1.1643,1.1768,1.1768,1.195,1.1849,0,0,0,0,0,0,0,0,0,0,1.1724,1.1704,1.1612,1.1614,1.1644,1.1768,1.1768,1.1844,1.1855,1.1902,0,1.1941,0,1.195,1.1966,1.1966,0,0,0,1.1638,1.1694,1.172,1.1614,1.1645,1.1768,1.171,1.185,1.1863,1.1917,1.1944,1.195,1.1953,1.1967,1.1968,1.2247,1.2249,0,0,1.1631,1.1639,1.1711,1.1729,1.1706,1.1706,1.1714,1.1857,1.1888,1.1944,1.1954,1.1956,1.1968,1.197,1.2246,1.2248,0,0,0,1.1615,1.1634,1.1656,1.1722,1.1743,1.171,1.1719,1.1882,1.1888,1.1956,1.1958,1.1969,1.1972,1.2244,1.2246,1.2331,0,0,0,1.161,1.1624,1.1654,1.166,1.174,1.1813,1.1741,1.1878,1.1894,1.1957,1.1969,1.1974,1.2242,1.2245,1.2325,1.2371,0,0,0,1.16,1.1623,1.1644,1.166,1.1713,1.181,1.1825,1.1882,1.1896,1.1966,1.1974,1.2241,1.2245,1.232,1.2362,1.2449,0,0,0,1.1592,1.1716,1.1645,1.1785,1.1712,1.186,1.1823,1.1933,1.2004,1.197,1.2243,1.2246,1.2318,1.2356,1.2444,1.2526,1.256,0,0,1.1753,1.1735,1.1817,1.1758,1.1919,1.184,1.2017,1.2074,1.2076,1.2192,1.2198,1.2327,1.2361,1.2448,1.2744,1.2771,0,0,0,1.1871,1.193,1.1972,1.2038,1.2084,1.213,1.216,1.2183,1.2281,1.2135,1.2381,1.2401,1.2452,1.2491,1.2514,1.256,1.2264,1.2263,1.2263,1.211,1.2104,1.2241,1.2252,1.2317,1.2349,1.2404,1.2441,1.2415,1.2474,1.2509,1.2688,1.2734,1.2752,1.2799,1.2549,1.255,1.255,1.255,1.2347,1.2432,1.2397,1.2517,1.2513,1.2616,1.2655,1.2634,1.2733,1.266,1.2705,1.2628,1.2781,1.2823,1.2557,1.2555,1.2555,1.2554,1.2554,1.2505,1.2545,1.2569,1.2668,1.2747,1.2755,1.2852,1.2844,1.2838,1.2882,1.2922,1.292,1.2921,1.2901,1.2902,1.2902,1.2903,1.2903,1.2904,1.2659,1.2684,1.2765,1.2828,1.2873,1.2931,1.2968,1.3014,1.3063,1.305,1.305,1.3024,1.2795,1.274,1.2913,1.2912,1.291,1.2909,1.2909,1.2906,1.285,1.2975,1.302,1.3097,1.3179,1.3168,1.3263,1.3299,1.3349,1.3314,1.3145,1.3128,1.3109,1.3064,1.331,1.331,1.331,1.331,1.3042,1.3032,1.316,1.3234,1.3305,1.3309,1.3459,1.3492,1.3518,1.3542,1.3505,1.3444,1.3425,1.3419,1.3394,1.3352,1.3666,1.3667,1.3667,1.3195,1.3193,1.3318,1.3339,1.3401,1.3456,1.3598,1.3689,1.3706,1.3681,1.3562,1.3547,1.3448,1.3415,1.3387,1.3349,1.3271,0,0]},{"header":{"parameterUnit":"m.s-1","parameterCategory":1,"la1":30.2992,"la2":30.254,"lo1":-89.0895,"lo2":-89.0443,"dy":0.0025,"dx":0.0025,"nx":19,"ny":19,"refTime":"2026-03-28T09:00:00:Z","depth":0,"parameterNumber":3,"parameterNumberName":"V-component_of_WINDS"},"data":[0,0,0,-3.623,-3.623,-3.6239,-3.6239,-3.623,-3.623,0,0,0,0,0,0,0,0,0,0,0,-3.6218,-3.6217,-3.623,-3.623,-3.6239,-3.6239,-3.623,-3.623,0,0,0,0,0,0,0,0,0,0,0,-3.6218,-3.6217,-3.6217,-3.623,-3.6239,-3.6239,-3.623,-3.623,0,0,0,0,0,0,0,0,0,0,-3.6225,-3.6205,-3.6217,-3.6217,-3.623,-3.6239,-3.6239,-3.623,-3.623,-3.6219,0,-3.6208,0,-3.6219,-3.6229,-3.6228,0,0,0,-3.6236,-3.6205,-3.6216,-3.6217,-3.623,-3.6238,-3.6236,-3.6231,-3.623,-3.6218,-3.6208,-3.6208,-3.6219,-3.6228,-3.6228,-3.6143,-3.6142,0,0,-3.6236,-3.6214,-3.6216,-3.6216,-3.6216,-3.6236,-3.6237,-3.6231,-3.6217,-3.6208,-3.6208,-3.6219,-3.6228,-3.6228,-3.6143,-3.6143,0,0,0,-3.623,-3.6213,-3.6225,-3.6215,-3.6219,-3.6236,-3.6237,-3.6218,-3.6223,-3.6208,-3.6219,-3.6228,-3.6228,-3.6144,-3.6143,-3.6085,0,0,0,-3.623,-3.621,-3.6224,-3.6211,-3.6218,-3.6219,-3.6223,-3.6224,-3.6224,-3.6219,-3.6228,-3.6228,-3.6145,-3.6144,-3.6088,-3.606,0,0,0,-3.622,-3.6209,-3.6207,-3.6209,-3.6213,-3.6219,-3.6225,-3.6224,-3.623,-3.6228,-3.6227,-3.6146,-3.6144,-3.6091,-3.6065,-3.6028,0,0,0,-3.6203,-3.6156,-3.6206,-3.6157,-3.6212,-3.6185,-3.6225,-3.6206,-3.6198,-3.6228,-3.6145,-3.6143,-3.6092,-3.6068,-3.6032,-3.5991,-3.5974,0,0,-3.6131,-3.6147,-3.612,-3.6164,-3.6122,-3.6185,-3.6134,-3.6147,-3.6167,-3.6149,-3.6147,-3.6087,-3.6066,-3.6029,-3.5888,-3.5873,0,0,0,-3.6089,-3.6069,-3.6063,-3.6055,-3.6065,-3.607,-3.6094,-3.6099,-3.6085,-3.6154,-3.6067,-3.6054,-3.6034,-3.6015,-3.6003,-3.5985,-3.6135,-3.6135,-3.6135,-3.5954,-3.5983,-3.5939,-3.5967,-3.5959,-3.5984,-3.5978,-3.5988,-3.602,-3.5998,-3.5992,-3.5903,-3.5881,-3.5872,-3.5853,-3.5976,-3.5976,-3.5976,-3.5976,-3.5849,-3.5823,-3.5866,-3.5838,-3.5867,-3.5844,-3.5865,-3.5887,-3.5867,-3.5911,-3.5894,-3.5936,-3.5855,-3.584,-3.5972,-3.5972,-3.5973,-3.5973,-3.5973,-3.5761,-3.5753,-3.5761,-3.575,-3.5739,-3.577,-3.5748,-3.5776,-3.5802,-3.5786,-3.578,-3.5781,-3.5782,-3.5782,-3.5781,-3.5781,-3.5781,-3.5781,-3.578,-3.5665,-3.5675,-3.5654,-3.566,-3.5657,-3.5657,-3.568,-3.5677,-3.5681,-3.5703,-3.5703,-3.5733,-3.5844,-3.5869,-3.5776,-3.5776,-3.5777,-3.5778,-3.5778,-3.5541,-3.5574,-3.5541,-3.5538,-3.5546,-3.553,-3.5567,-3.5558,-3.556,-3.5547,-3.5582,-3.5661,-3.5678,-3.5688,-3.5708,-3.5579,-3.5579,-3.5579,-3.5579,-3.5464,-3.5476,-3.5448,-3.5441,-3.5438,-3.5467,-3.5425,-3.5442,-3.5464,-3.5466,-3.549,-3.5521,-3.553,-3.5541,-3.5554,-3.5573,-3.5413,-3.5413,-3.5412,-3.5388,-3.5401,-3.5361,-3.5385,-3.5392,-3.5397,-3.5357,-3.5345,-3.5377,-3.5406,-3.5467,-3.5474,-3.5524,-3.554,-3.5568,-3.5588,-3.5624,0,0]}]]